Location: Góry Miechowskie
(50.3599°N, 20.1803°E)
Time: 12:04:06
(UTC+00:00)

Cosmos 372 Rocket - Pass Details

Date: 15 June 2024
Orbit: 736 x 764 km, 74.1° (Epoch: 16 July)

Event Time Altitude Azimuth Distance (km) Brightness Sun altitude
Exits shadow 00:42:35 16° 215° (SW) 1,940 5.4 -11.5°
Maximum altitude 00:46:50 67° 296° (WNW) 827 4.2 -11.1°
Drops below altitude 10° 00:52:03 10° 20° (NNE) 2,303 8.0 -10.7°
Sets 00:54:27 0° 23° (NNE) 3,229 9.3 -10.5°
